Flag for Cyprus Weather past 2 weeks in Nicosia, Cyprus

Now
61 °F

Passing clouds.


Feels Like: 61 °F
Forecast: 48 / 67 °F
Wind: 12 mph from Southeast

Location: Ercan

Current Time: Feb 1, 2015 at 4:18:23 PM

Latest Report: Feb 1, 2015 at 3:50 PM


Visibility: N/A

Pressure: 30.04 "Hg

Humidity: 63%

Dew point: 48 °F

Location of NicosiaLocation

Historic Weather in Nicosia — Graph

°F

Nicosia temperature yesterday

Maximum temperature yesterday: 64 °F (at 11:50 AM)
Minimum temperature yesterday: 43 °F (at 1:20 AM)
Average temperature yesterday: 52 °F

Past Weeks' High & Low Weather Summary

 TemperatureHumidityPressure
High64 °F (Jan 20, 12:20 PM)100% (Jan 21, 4:50 AM)30.33 "Hg (Jan 21, 4:50 AM)
Low39 °F (Jan 26, 4:20 AM)32% (Jan 28, 1:50 PM)29.83 "Hg (Jan 30, 3:20 AM)
Average52 °F79%30.07 "Hg
* Reported Jan 17 2:20 PM — Feb 1 2:50 PM, Nicosia, Weather by CustomWeather, © 2014

Note: Actual official high and low records may vary slightly from our data, if they occured in-between our weather recording intervals... More about our weather records

Advertising

Nicosia weather history for previous 24 hours

 ConditionsComfort  
Time TempWeatherWind HumidityBarometerVisibility
2:50 PM
Feb 1
63 °FPassing clouds.13 mph64%30.04 "HgN/A
2:20 PM64 °FPassing clouds.12 mph60%30.04 "HgN/A
1:50 PM64 °FPassing clouds.12 mph56%30.04 "HgN/A
1:20 PM64 °FPassing clouds.9 mph60%30.07 "HgN/A
12:50 PM64 °FPassing clouds.10 mph60%30.07 "HgN/A
12:20 PM64 °FPassing clouds.13 mph56%30.07 "HgN/A
11:50 AM64 °FPassing clouds.10 mph56%30.09 "HgN/A
11:20 AM63 °FPassing clouds.10 mph59%30.09 "HgN/A
10:50 AM61 °FPassing clouds.8 mph72%30.09 "HgN/A
10:20 AM61 °FSunny.8 mph68%30.09 "Hg10 mi
9:50 AM57 °FSunny.8 mph82%30.12 "Hg10 mi
9:20 AM55 °FSunny.7 mph82%30.12 "Hg10 mi
8:50 AM54 °FSunny.3 mph82%30.09 "Hg10 mi
8:20 AM48 °FSunny.5 mph94%30.09 "Hg10 mi
7:50 AM46 °FSunny.6 mph87%30.12 "Hg10 mi
7:20 AM43 °FSunny.6 mph93%30.09 "Hg10 mi
6:50 AM41 °FSunny.5 mph93%30.09 "Hg10 mi
6:20 AM41 °FClear.No wind93%30.09 "Hg10 mi
5:50 AM43 °FClear.3 mph93%30.09 "Hg10 mi
5:20 AM43 °FPassing clouds.5 mph93%30.09 "HgN/A
3:50 AM43 °FPassing clouds.3 mph93%30.09 "HgN/A
3:20 AM41 °FPassing clouds.3 mph93%30.09 "HgN/A
2:50 AM43 °FPassing clouds.3 mph87%30.09 "HgN/A
2:20 AM41 °FPassing clouds.3 mph93%30.09 "HgN/A
1:50 AM45 °FPassing clouds.No wind81%30.09 "HgN/A
1:20 AM46 °FPassing clouds.3 mph87%30.09 "HgN/A
12:50 AM46 °FPassing clouds.5 mph87%30.09 "HgN/A
12:20 AM46 °FPassing clouds.5 mph87%30.09 "HgN/A
11:50 PM
Jan 31
45 °FPassing clouds.3 mph87%30.12 "HgN/A
11:20 PM46 °FPassing clouds.No wind82%30.12 "HgN/A
10:50 PM46 °FPassing clouds.No wind76%30.09 "HgN/A
10:20 PM48 °FPassing clouds.No wind87%30.09 "HgN/A
9:50 PM46 °FPassing clouds.3 mph87%30.09 "HgN/A
9:20 PM46 °FPassing clouds.No wind87%30.09 "HgN/A
8:50 PM45 °FPassing clouds.5 mph87%30.09 "HgN/A
8:20 PM48 °FPassing clouds.No wind82%30.09 "HgN/A
7:50 PM48 °FPassing clouds.3 mph76%30.09 "HgN/A
7:20 PM48 °FPassing clouds.6 mph82%30.07 "HgN/A
6:50 PM50 °FPassing clouds.6 mph71%30.07 "HgN/A
6:20 PM54 °FPassing clouds.7 mph67%30.07 "HgN/A
5:50 PM55 °FPassing clouds.6 mph63%30.04 "HgN/A
5:20 PM57 °FPassing clouds.8 mph59%30.04 "HgN/A
4:50 PM59 °FBroken clouds.10 mph55%30.04 "HgN/A
4:20 PM59 °FBroken clouds.13 mph59%30.04 "HgN/A
Weather by CustomWeather, © 2014

See weather overviewHow to use our weather pages